Weather History for PAJC - December, 2013

Change the Weather History Date:

Thursday, December 26, 2013

  Actual Average Record
Temperature  
Mean Temperature 35 °F -  
Max Temperature 37 °F - - ()
Min Temperature 33 °F - - ()
Degree Days  
Heating Degree Days 30    
Moisture  
Dew Point 35 °F    
Average Humidity 98    
Maximum Humidity 100    
Minimum Humidity 93    
Precipitation  
Precipitation 0.02 in - - ()
Sea Level Pressure  
Sea Level Pressure 29.63 in    
Wind  
Wind Speed 1 mph (ESE)    
Max Wind Speed 12 mph    
Max Gust Speed -    
Visibility 6 miles    
Events      
T = Trace of Precipitation, MM = Missing Value Source: NWS Daily Summary

Daily Weather History Graph

Daily Weather History Graph

Search for Another Location

Airport or City:

Trip Planner

Search our weather history database for the weather conditions in past years. The results will help you decide how hot, cold, wet, or windy it might be!

Date:

Astronomy

Dec. 26, 2013 Rise Set
Actual Time 10:07 AM AKST 5:01 PM AKST
Civil Twilight 9:19 AM AKST 5:49 PM AKST
Nautical Twilight 8:29 AM AKST 6:39 PM AKST
Astronomical Twilight 7:43 AM AKST 7:25 PM AKST
Moon 2:56 AM AKST (12/26) 1:29 PM AKST (12/26)
Length of Visible Light 8h 30m
Length of Day
6h 54m
Last Quarter, 37% of the Moon is Illuminated
Dec 26
Last Quarter
Jan 1
New
Jan 7
First Quarter
Jan 15
Full
Jan 23
Last Quarter

Hourly Weather History & Observations

Time (AKST) Temp. Windchill Dew Point Humidity Pressure Visibility Wind Dir Wind Speed Gust Speed Precip Events Conditions
12:16 AM 35.6 °F - 35.6 °F 100% 29.65 in 7.0 mi Calm Calm - N/A   Overcast
12:36 AM 35.6 °F - 33.8 °F 93% 29.66 in 8.0 mi Calm Calm - N/A   Overcast
12:56 AM 33.8 °F - 33.8 °F 100% 29.65 in 3.0 mi Calm Calm - N/A   Overcast
1:16 AM 33.8 °F - 33.8 °F 100% 29.65 in 3.0 mi Calm Calm - N/A   Overcast
1:56 AM 35.6 °F - 33.8 °F 93% 29.65 in 7.0 mi Calm Calm - N/A   Overcast
2:16 AM 35.6 °F - 33.8 °F 93% 29.65 in 9.0 mi Calm Calm - N/A   Overcast
2:56 AM 33.8 °F - 32.0 °F 93% 29.64 in 10.0 mi Calm Calm - 0.01 in   Overcast
3:16 AM 33.8 °F - 33.8 °F 100% 29.64 in 1.0 mi Calm Calm - N/A   Overcast
3:36 AM 33.8 °F - 32.0 °F 93% 29.64 in 2.0 mi Calm Calm - N/A   Overcast
3:56 AM 33.8 °F - 33.8 °F 100% 29.64 in 2.5 mi Calm Calm - N/A   Overcast
4:16 AM 33.8 °F - 33.8 °F 100% 29.64 in 1.2 mi Calm Calm - N/A   Overcast
4:36 AM 33.8 °F - 33.8 °F 100% 29.65 in 1.8 mi Calm Calm - N/A   Overcast
4:56 AM 35.6 °F - 35.6 °F 100% 29.65 in 10.0 mi Calm Calm - N/A   Overcast
5:16 AM 35.6 °F - 35.6 °F 100% 29.64 in 10.0 mi Calm Calm - N/A   Overcast
5:36 AM 33.8 °F - 33.8 °F 100% 29.64 in 10.0 mi Calm Calm - N/A   Overcast
5:56 AM 33.8 °F - 33.8 °F 100% 29.64 in 10.0 mi Calm Calm - N/A   Overcast
6:16 AM 33.8 °F - 33.8 °F 100% 29.64 in 10.0 mi Calm Calm - N/A   Overcast
6:36 AM 33.8 °F - 33.8 °F 100% 29.64 in 10.0 mi Calm Calm - N/A   Overcast
6:56 AM 33.8 °F - 33.8 °F 100% 29.63 in 8.0 mi Calm Calm - N/A   Overcast
7:16 AM 33.8 °F - 32.0 °F 93% 29.63 in 3.0 mi Calm Calm - N/A   Overcast
7:36 AM 33.8 °F - 33.8 °F 100% 29.63 in 6.0 mi Calm Calm - N/A   Overcast
7:56 AM 33.8 °F - 33.8 °F 100% 29.63 in 10.0 mi Calm Calm - N/A   Overcast
8:16 AM 33.8 °F - 33.8 °F 100% 29.63 in 10.0 mi Calm Calm - N/A   Overcast
8:36 AM 33.8 °F - 33.8 °F 100% 29.63 in 10.0 mi Calm Calm - N/A   Overcast
8:56 AM 33.8 °F - 32.0 °F 93% 29.64 in 10.0 mi Calm Calm - N/A   Overcast
9:16 AM 35.6 °F - 35.6 °F 100% 29.64 in 10.0 mi Calm Calm - N/A   Overcast
9:36 AM 33.8 °F - 33.8 °F 100% 29.64 in 10.0 mi Calm Calm - N/A   Overcast
9:56 AM 35.6 °F - 35.6 °F 100% 29.64 in 10.0 mi Calm Calm - N/A   Overcast
10:16 AM 35.6 °F - 35.6 °F 100% 29.64 in 10.0 mi Calm Calm - N/A   Overcast
10:36 AM 35.6 °F - 33.8 °F 93% 29.65 in 10.0 mi Calm Calm - N/A   Overcast
10:56 AM 35.6 °F 31.7 °F 35.6 °F 100% 29.65 in 10.0 mi East 4.6 mph - N/A   Overcast
11:16 AM 37.4 °F - 37.4 °F 100% 29.65 in 10.0 mi Calm Calm - N/A   Overcast
11:36 AM 35.6 °F - 35.6 °F 100% 29.65 in 10.0 mi Calm Calm - N/A   Overcast
11:56 AM 37.4 °F - 35.6 °F 93% 29.65 in 8.0 mi Calm Calm - N/A   Overcast
12:16 PM 37.4 °F - 35.6 °F 93% 29.64 in 5.0 mi Calm Calm - N/A   Overcast
12:36 PM 35.6 °F - 35.6 °F 100% 29.64 in 6.0 mi Calm Calm - N/A   Overcast
12:56 PM 37.4 °F - 37.4 °F 100% 29.64 in 10.0 mi Calm Calm - N/A   Overcast
1:16 PM 37.4 °F 34.9 °F 37.4 °F 100% 29.64 in 10.0 mi SW 3.5 mph - N/A   Overcast
1:36 PM 37.4 °F - 37.4 °F 100% 29.64 in 10.0 mi Calm Calm - N/A   Overcast
1:56 PM 37.4 °F - 37.4 °F 100% 29.64 in 0.5 mi Calm Calm - N/A   Overcast
2:16 PM 37.4 °F - 37.4 °F 100% 29.64 in 1.0 mi Calm Calm - N/A   Overcast
2:36 PM 37.4 °F 34.9 °F 37.4 °F 100% 29.63 in 0.8 mi SSE 3.5 mph - N/A   Overcast
2:56 PM 37.4 °F 34.9 °F 37.4 °F 100% 29.63 in 0.5 mi SE 3.5 mph - N/A   Overcast
3:16 PM 37.4 °F - 37.4 °F 100% 29.62 in 1.0 mi Calm Calm - N/A   Overcast
3:36 PM 35.6 °F - 35.6 °F 100% 29.62 in 0.2 mi Calm Calm - N/A   Overcast
3:56 PM 35.6 °F - 33.8 °F 93% 29.62 in 0.5 mi Calm Calm - N/A   Overcast
4:16 PM 35.6 °F - 33.8 °F 93% 29.61 in 0.2 mi Calm Calm - N/A   Overcast
4:36 PM 35.6 °F - 33.8 °F 93% 29.61 in 0.2 mi Calm Calm - N/A   Overcast
4:56 PM 35.6 °F - 33.8 °F 93% 29.61 in 0.2 mi Calm Calm - N/A   Overcast
5:16 PM 33.8 °F - 33.8 °F 100% 29.62 in 0.5 mi Calm Calm - N/A   Overcast
5:36 PM 33.8 °F 29.6 °F 32.0 °F 93% 29.61 in 0.8 mi ENE 4.6 mph - N/A   Overcast
5:56 PM 35.6 °F - 35.6 °F 100% 29.61 in 1.5 mi Calm Calm - N/A   Overcast
6:16 PM 35.6 °F 31.7 °F 35.6 °F 100% 29.60 in 10.0 mi NE 4.6 mph - N/A   Overcast
6:36 PM 35.6 °F - 35.6 °F 100% 29.61 in 1.8 mi Calm Calm - N/A   Overcast
6:56 PM 35.6 °F - 35.6 °F 100% 29.62 in 0.5 mi Calm Calm - N/A   Overcast
7:16 PM 33.8 °F - 33.8 °F 100% 29.62 in 0.5 mi Calm Calm - N/A   Overcast
7:36 PM 33.8 °F - 33.8 °F 100% 29.61 in 0.2 mi Calm Calm - N/A   Overcast
7:56 PM 35.6 °F - 33.8 °F 93% 29.61 in 1.5 mi Calm Calm - N/A   Overcast
8:16 PM 33.8 °F - 33.8 °F 100% 29.61 in 0.8 mi Calm Calm - N/A   Overcast
8:36 PM 33.8 °F - 32.0 °F 93% 29.61 in 0.5 mi Calm Calm - N/A   Overcast
8:56 PM 33.8 °F - 33.8 °F 100% 29.61 in 0.8 mi Calm Calm - N/A   Overcast
9:16 PM 35.6 °F 30.7 °F 33.8 °F 93% 29.62 in 4.0 mi SSE 5.8 mph - N/A   Overcast
9:36 PM 37.4 °F 30.8 °F 37.4 °F 100% 29.62 in 10.0 mi ESE 9.2 mph - N/A   Overcast
9:56 PM 37.4 °F 30.8 °F 37.4 °F 100% 29.62 in 10.0 mi East 9.2 mph - N/A   Overcast
10:16 PM 37.4 °F 29.8 °F 37.4 °F 100% 29.61 in 10.0 mi East 11.5 mph - N/A   Overcast
10:36 PM 37.4 °F 32.8 °F 37.4 °F 100% 29.61 in 8.0 mi East 5.8 mph - N/A   Overcast
10:56 PM 37.4 °F 33.8 °F 37.4 °F 100% 29.61 in 8.0 mi ESE 4.6 mph - N/A   Overcast
11:16 PM 37.4 °F 31.4 °F 37.4 °F 100% 29.61 in 7.0 mi East 8.1 mph - N/A   Overcast
11:36 PM 37.4 °F 32.1 °F 37.4 °F 100% 29.61 in 5.0 mi East 6.9 mph - N/A   Overcast
11:56 PM 37.4 °F 32.1 °F 37.4 °F 100% 29.61 in 4.0 mi East 6.9 mph - 0.01 in   Overcast